Погода в Екабпилсе

Латвия     56°29′52″N   25°52′00″E
темп.,
°C
ветер,
м/с
пор.,
м/с
влажн.,
%
обл.,
%
осадки,
мм/ч
давл.,
гПа
погр.,
м
5 марта, пт
пт523:00−2зсз38660 0.0 1011473
02:00−2зсз488012 0.0 10111026
05:00−3зсз597375 0.1 1012993
08:00−3ссз586087 0.1 10131137
11:00−1ссз59360 0.0 10151750
14:000сз47320 0.0 10162181
17:00−1зсз244777 0.0 10161070
20:00−3св119088 0.4 101856
6 марта, сб
сб623:00−3ссв267899 0.7 1020625
02:00−5ссз266869 0.7 1022277
05:00−5зсз26680 0.0 1022314
08:00−5з37710 0.0 1023434
11:00−1з47554 0.0 10221173
14:00+1зюз510465 0.0 10201484
17:00+1зюз61354100 0.0 10161533
20:000зюз71758100 0.0 10131349
7 марта, вс
вс723:00−1зюз81684100 0.1 10081215
02:000з71597100 1.8 10041148
05:00−2сз61372100 1.6 10041485
08:00−4зсз3115971 1.6 10061556
11:00−1зсз7124866 0.1 10062149
14:00−1з7125183 0.6 10041900
17:00−3з71481100 0.7 10021422
20:00−4сз7156796 1.1 10031566
8 марта, пн
пн823:00−5сз61171100 0.0 10061191
02:00−6сз397679 0.0 1008831
05:00−6сз268390 0.0 1009416
08:00−6ссз247853 0.0 1011414
11:00−4ссз466796 0.1 10131011
14:00−4с465498 0.1 10151246
17:00−5с4758100 0.1 10161204
20:00−7с486993 0.1 1020882
9 марта, вт
вт923:00−9с38710 0.0 1022617
02:00−10сз24770 0.0 1023180
05:00−10сз24800 0.0 1025132
08:00−9сз13736 0.0 1026140
11:00−4зсз23500 0.0 1027632
14:00−2з34470 0.0 1027913
17:00−2з36530 0.0 1026830
20:00−5зюз39656 0.0 1027289